Temperature
21 21 20 20 20 21 21 21 21 21 21 21 20 20 20 20 20 19 19 19 19 19 19 19 19 19 19 19 19 19 19 19 19 18 18 18 18 18 18 17 17 17 18
23 21 21 21 21 21 21 21 21 21 21 21 21 20 20 20 20 20 20 20 19 19 19 19 19 19 19 19 19 19 19 19 19 19 18 18 18 18 18 18 18 18 17
23 21 21 21 21 21 21 21 21 21 21 21 21 21 20 20 20 20 20 20 20 20 20 20 19 20 20 20 20 19 19 19 19 19 18 18 18 18 18 18 18 18 18
23 22 21 21 21 21 21 21 21 21 21 21 21 21 20 20 20 20 20 20 20 20 20 20 20 20 20 20 20 20 19 19 19 19 18 18 18 18 18 18 18 18 18
22 22 21 21 21 21 21 21 21 21 21 21 21 21 20 20 20 20 20 20 20 20 20 20 20 20 20 20 20 19 19 19 19 19 18 18 18 18 18 18 18 18 18
22 22 21 21 21 21 21 21 21 21 21 21 21 21 20 20 20 20 20 20 20 20 20 20 20 20 20 20 19 19 19 19 18 18 18 18 18 18 18 18 18 18 18
22 22 21 21 21 21 21 21 21 21 21 21 21 21 21 20 20 20 20 20 20 20 20 20 20 20 19 19 19 19 19 18 18 18 18 18 18 18 18 18 18 18 18
22 22 21 21 21 21 21 21 21 21 21 21 21 21 20 20 20 20 20 20 20 20 20 20 19 19 19 19 19 19 19 18 18 18 18 18 18 18 18 17 17 18 18
22 22 21 21 21 21 21 21 21 21 21 21 21 20 20 20 20 20 20 20 20 19 19 19 19 19 19 19 19 19 19 18 18 18 18 18 18 18 18 17 17 17 17
22 21 21 20 20 20 20 20 20 20 20 20 20 20 20 20 20 20 20 19 19 19 19 19 19 19 19 19 19 18 18 18 18 18 18 18 18 18 18 18 17 17 17
21 21 20 20 20 20 20 20 20 20 20 20 20 20 20 20 20 20 19 19 19 19 19 19 19 18 18 18 18 18 18 18 18 18 18 18 18 18 18 18 18 17 17
21 20 20 20 20 20 20 20 20 20 19 19 19 19 19 19 19 19 19 19 19 18 18 18 18 18 18 18 18 18 18 18 18 18 18 18 18 18 18 18 18 17 17
21 20 19 19 19 19 19 19 19 19 19 19 19 19 19 19 19 19 19 19 18 18 18 18 18 18 18 18 18 18 18 18 18 18 18 18 18 18 18 18 18 18 17
20 20 19 19 19 19 19 19 19 19 20 19 19 19 19 19 19 19 18 18 18 18 18 18 18 18 18 18 18 18 18 18 18 18 18 18 18 18 17 18 18 18 18
20 20 19 19 19 19 19 19 20 20 20 20 20 19 19 18 18 18 18 18 18 18 18 18 18 18 18 18 18 18 18 18 18 18 18 18 18 18 18 18 18 18 18
20 20 19 19 19 19 19 19 20 20 19 19 19 19 18 18 18 18 18 18 18 18 18 18 18 17 17 17 17 17 18 18 18 18 18 18 18 18 18 18 18 18 18
19 19 19 19 19 19 19 19 19 19 19 19 19 18 18 18 18 18 18 18 18 18 17 17 17 17 17 17 17 17 17 17 17 17 18 18 18 18 18 18 18 18 18
18 18 18 18 18 18 18 18 18 18 18 18 18 18 18 18 17 17 17 17 17 17 17 17 17 17 17 17 17 17 17 17 17 17 17 17 17 18 18 18 18 18 18
17 17 17 17 17 17 17 17 17 17 17 17 17 17 17 17 17 17 17 17 17 17 17 17 17 17 17 17 17 17 17 17 17 17 17 17 17 17 17 17 17 17 18
17 17 17 17 17 17 17 17 17 17 17 17 16 16 17 17 17 17 17 18 18 17 17 17 17 17 17 17 17 17 17 17 17 17 17 17 17 17 17 17 17 17 17
17 17 17 17 17 17 17 16 16 16 16 16 16 16 16 16 17 17 17 18 18 18 18 17 17 17 17 17 17 17 17 17 17 17 17 16 16 16 17 17 17 17 17
17 17 17 17 16 16 16 16 16 15 16 16 16 16 16 16 16 17 17 18 18 18 18 18 17 17 17 17 17 17 17 17 17 17 16 16 16 16 16 17 17 17 17
17 17 17 17 16 16 16 16 16 16 16 16 16 16 16 16 16 16 17 17 17 17 18 18 17 17 17 17 17 16 16 17 16 16 16 16 16 16 16 16 17 17 17
17 17 17 17 17 16 16 16 16 16 15 15 15 16 16 16 16 16 16 16 17 17 17 17 17 17 17 17 16 16 16 16 16 16 16 16 16 16 16 16 16 17 17
17 17 17 17 17 17 16 16 16 16 15 15 15 15 15 15 16 16 16 16 16 16 16 16 16 17 17 16 16 16 16 15 15 15 15 16 16 16 16 16 16 16 16
16 16 16 16 17 16 16 16 16 15 15 15 15 15 15 15 15 15 15 15 16 16 16 16 16 16 16 16 16 16 16 15 15 15 14 15 15 16 16 15 15 15 16
Wind_Speed
10 12 21 21 20 19 18 18 18 18 18 18 18 18 18 17 17 16 15 14 12 11 10 9 8 8 8 9 9 10 11 12 13 13 13 13 13 13 13 14 13 13 15
15 17 22 22 20 19 19 18 18 18 18 18 17 17 17 16 16 15 14 13 12 11 10 9 8 8 8 9 9 10 10 11 12 12 13 12 12 12 12 12 12 11 14
16 17 21 22 21 20 19 18 18 17 17 17 16 16 16 15 15 15 14 13 12 11 10 9 8 8 8 8 9 9 10 10 10 11 11 9 10 11 12 12 12 13 13
15 15 18 22 21 20 19 18 17 17 16 16 15 15 15 14 14 14 13 13 11 10 10 9 8 8 8 8 8 8 9 9 9 10 7 6 6 10 12 12 13 13 13
12 13 18 23 21 20 19 18 17 16 15 15 14 14 14 13 13 13 12 12 11 10 10 9 9 8 8 8 8 8 8 8 8 8 6 5 2 7 12 13 13 13 13
12 12 17 22 21 20 18 17 16 15 15 14 14 13 13 13 13 12 12 12 11 11 10 10 9 9 9 9 8 8 8 9 8 5 6 5 5 7 11 13 14 14 14
12 11 16 22 21 19 18 17 16 15 15 14 14 13 13 13 13 12 12 12 12 11 11 10 10 10 10 10 9 9 9 10 7 5 5 6 7 9 12 14 14 15 15
13 10 14 20 20 19 18 17 16 15 14 14 13 13 13 13 13 13 13 13 12 12 12 12 12 11 11 11 11 10 10 10 9 8 8 8 10 12 15 16 17 17 17
12 10 8 13 16 17 16 15 14 14 13 13 13 13 13 13 13 14 14 13 13 13 13 13 13 13 13 13 12 12 12 12 10 7 8 8 10 12 15 18 18 19 19
10 9 7 9 10 10 11 12 12 12 12 12 13 14 14 15 15 15 15 14 15 15 15 15 15 15 15 15 14 14 14 13 12 10 9 10 11 11 14 17 19 20 20
10 9 8 7 7 8 7 8 9 10 11 12 13 14 15 13 13 13 15 16 16 17 17 18 18 17 17 16 16 16 15 12 11 11 11 13 14 14 15 17 20 22 22
12 10 8 8 7 6 6 5 5 6 7 9 10 11 11 10 11 13 13 17 18 19 19 20 20 19 17 14 15 16 13 13 12 12 12 16 17 17 16 17 19 22 24
10 9 8 7 6 5 2 2 2 2 4 7 9 10 10 9 9 12 11 13 15 16 15 16 16 15 14 13 12 12 13 13 12 13 14 18 19 18 18 18 18 21 23
10 9 8 7 6 5 3 1 2 3 3 5 8 11 9 6 6 7 8 10 10 10 9 10 8 11 12 13 13 12 12 12 12 13 15 19 19 20 19 19 18 19 22
11 10 8 7 6 4 3 2 3 3 4 6 7 9 11 7 7 6 6 8 9 9 7 6 6 7 7 8 9 10 9 11 13 13 13 17 18 19 19 19 18 19 21
10 10 8 7 5 4 3 3 3 3 4 5 6 8 10 9 6 6 7 6 6 8 8 6 5 5 5 4 6 7 7 9 10 12 12 14 16 17 17 18 19 20 20
8 7 6 5 3 2 3 4 3 3 3 3 5 7 9 9 7 6 6 5 5 7 6 4 3 2 3 3 4 5 5 6 7 9 10 11 12 14 17 18 19 19 20
4 4 3 3 1 2 4 4 4 3 3 3 4 6 7 8 7 4 5 5 5 5 4 3 3 2 2 2 2 3 4 4 6 7 8 9 10 11 13 17 18 19 20
4 2 1 1 1 2 4 4 5 4 3 2 3 5 5 5 6 5 5 5 5 3 3 3 2 3 2 2 3 4 4 4 5 5 6 8 9 10 11 13 16 17 19
4 2 1 1 1 2 2 3 3 3 3 2 2 3 3 3 6 5 5 6 4 4 3 3 3 2 2 2 3 3 3 4 4 5 6 5 5 7 8 9 10 11 15
3 3 2 3 3 2 1 2 2 2 2 2 2 2 2 4 4 4 5 5 5 5 5 5 3 3 2 1 0 2 2 2 2 2 2 2 2 3 4 6 6 8 9
4 4 3 3 3 3 2 1 1 1 2 2 2 2 3 3 4 5 6 5 6 5 5 5 4 3 2 2 2 1 2 3 2 2 1 1 1 2 3 5 5 6 8
3 3 3 3 2 2 2 1 1 1 1 2 3 3 3 4 4 4 4 5 5 5 5 6 6 6 4 2 2 3 2 2 2 2 1 1 2 2 4 5 6 7 8
1 0 2 2 2 2 2 2 2 1 1 2 2 3 4 3 3 3 4 5 5 5 5 6 6 4 4 3 2 2 2 3 1 2 2 2 3 3 5 6 7 8 9
3 2 0 1 0 0 1 2 3 2 0 1 1 3 4 4 4 3 2 3 4 5 6 6 5 6 5 5 4 3 2 2 2 3 4 4 3 4 5 6 7 6 7
4 3 2 2 2 2 2 2 3 3 2 1 1 2 2 2 3 4 3 3 2 3 5 6 6 7 7 6 5 4 4 3 4 4 5 4 5 4 5 5 5 5 5
Wind_Direction
165 164 169 162 155 150 146 143 138 135 133 133 135 139 144 148 152 155 158 159 160 160 158 154 149 142 137 132 129 127 127 128 130 131 132 132 130 128 125 122 121 123 124
154 161 167 162 157 152 149 146 142 139 139 139 141 144 147 152 156 159 161 163 165 165 164 162 158 152 148 143 139 136 135 137 140 140 140 140 139 136 133 129 129 131 130
147 157 164 161 158 154 151 148 145 143 143 144 146 149 152 156 161 164 166 168 170 170 168 166 164 160 157 153 149 146 146 147 148 149 144 141 147 149 144 142 141 138 137
144 153 160 161 158 156 153 150 148 148 148 149 151 154 158 162 166 169 171 173 174 174 174 174 172 169 166 164 159 157 156 157 158 153 137 144 156 163 160 156 153 149 146
140 149 161 161 159 157 154 152 151 152 154 156 158 161 165 169 173 176 177 178 180 180 181 183 182 178 176 174 171 170 170 169 170 158 153 167 181 176 173 168 166 161 157
141 148 163 162 160 158 156 155 156 158 162 165 167 171 174 178 181 184 186 188 190 191 193 194 194 191 188 187 186 185 186 187 185 166 176 195 206 195 186 182 179 175 170
144 149 163 162 162 160 159 160 163 166 170 174 178 182 186 188 192 195 197 199 202 203 204 204 205 204 202 201 200 200 201 204 197 195 204 213 218 216 207 199 194 188 183
148 147 161 164 163 163 164 166 169 174 179 184 189 194 198 201 203 205 208 210 213 214 215 215 215 214 213 213 213 212 212 216 216 216 225 232 236 231 220 212 206 199 194
145 144 148 158 163 165 167 170 175 181 188 194 199 204 209 212 215 217 219 221 222 224 226 226 225 225 223 223 223 224 224 225 225 218 227 233 240 235 224 218 213 208 202
140 143 139 140 144 151 163 175 183 192 199 206 211 214 218 222 223 226 227 230 232 233 235 236 235 234 233 231 231 232 233 235 234 229 232 237 241 238 229 224 220 215 210
152 151 141 130 127 131 143 171 187 204 212 217 222 225 226 228 232 235 236 236 239 241 242 242 241 240 238 238 237 238 239 236 234 234 232 236 239 240 237 231 226 222 217
161 160 149 139 127 124 151 165 186 207 219 225 227 233 234 229 232 240 245 246 247 248 250 249 247 245 243 239 238 240 238 235 235 238 237 237 238 238 239 237 230 225 221
147 149 150 145 134 134 143 153 170 222 237 236 234 234 236 236 236 241 243 251 254 256 255 254 251 243 236 232 230 231 234 237 239 239 240 241 239 238 238 238 233 228 225
137 144 142 145 143 150 142 154 172 206 223 231 235 233 230 231 231 234 238 240 243 248 252 251 243 237 234 232 230 232 234 235 239 238 241 245 244 243 240 237 234 231 228
138 141 147 146 151 158 156 192 215 223 231 232 230 234 230 230 236 237 238 239 238 239 243 244 238 234 232 232 233 235 236 236 239 240 243 247 246 245 243 240 236 233 232
144 149 155 159 162 170 192 217 234 234 235 231 233 232 234 234 235 241 246 240 237 235 237 235 232 229 231 229 237 239 242 242 242 243 244 250 252 252 249 246 241 236 233
143 145 150 161 176 206 238 250 249 247 255 240 242 245 243 240 237 242 245 240 235 233 227 225 228 217 222 223 239 247 246 244 244 246 247 248 252 253 252 251 248 242 238
112 121 137 157 163 266 279 284 284 281 267 258 258 259 248 244 242 240 242 238 230 219 203 195 190 187 206 213 238 254 252 250 250 252 253 251 251 254 255 255 253 248 244
66 75 67 8 289 293 297 290 279 277 271 269 267 267 259 243 234 230 233 229 216 204 197 193 179 182 195 218 246 254 255 253 256 260 258 255 252 253 256 259 258 256 254
62 50 40 295 304 294 289 282 273 280 290 304 284 281 257 235 230 218 220 221 199 195 193 186 177 180 190 206 250 264 266 266 261 253 255 258 257 256 256 259 261 263 260
61 41 20 359 342 341 309 278 274 302 318 325 303 300 275 248 232 219 222 214 200 198 200 188 171 181 193 172 173 314 312 288 275 250 251 256 270 280 280 274 266 265 267
45 37 35 20 351 349 336 299 278 253 274 280 303 304 274 259 246 234 221 216 207 198 197 193 178 171 185 168 154 116 340 341 346 14 335 278 307 318 325 318 298 282 275
44 43 58 36 20 360 350 351 352 352 343 354 333 318 306 285 259 252 241 229 218 205 203 200 190 179 185 193 185 159 162 235 305 321 325 325 323 317 317 312 299 292 287
332 146 91 69 45 18 29 66 64 49 3 335 323 319 316 313 300 275 256 241 231 220 217 213 201 191 174 188 197 201 182 167 190 307 311 312 309 297 302 304 302 297 291
289 275 163 121 81 51 90 109 103 97 201 287 326 353 351 345 342 332 297 257 239 227 223 219 207 203 195 187 183 174 176 182 192 221 277 302 306 283 285 289 291 291 293
284 279 268 251 244 235 191 169 157 163 177 163 21 8 352 336 336 344 340 329 301 265 239 226 218 213 210 203 196 188 179 178 187 199 238 275 294 291 292 285 283 288 295
Height
1497 1501 1506 1509 1512 1515 1518 1521 1523 1525 1527 1529 1531 1533 1535 1536 1538 1539 1540 1541 1542 1543 1544 1545 1545 1546 1547 1547 1548 1548 1549 1549 1549 1550 1550 1551 1551 1552 1552 1553 1554 1554 1555
1494 1500 1505 1509 1513 1515 1518 1521 1523 1526 1528 1530 1532 1534 1535 1537 1538 1540 1541 1542 1543 1544 1545 1545 1546 1547 1548 1548 1549 1549 1550 1550 1551 1551 1552 1552 1553 1554 1554 1555 1556 1557 1558
1495 1500 1505 1509 1513 1516 1519 1521 1524 1526 1529 1531 1532 1534 1536 1537 1539 1540 1541 1542 1544 1545 1545 1546 1547 1548 1548 1549 1550 1550 1551 1551 1552 1552 1553 1554 1554 1555 1556 1557 1558 1559 1560
1497 1501 1505 1510 1514 1517 1520 1522 1525 1527 1529 1531 1533 1535 1536 1538 1539 1540 1542 1543 1544 1545 1546 1547 1548 1548 1549 1550 1550 1551 1552 1552 1553 1554 1554 1555 1556 1557 1558 1559 1560 1561 1561
1499 1503 1507 1511 1514 1518 1520 1523 1525 1528 1530 1532 1533 1535 1537 1538 1539 1541 1542 1543 1544 1545 1546 1547 1548 1549 1550 1550 1551 1552 1552 1553 1554 1555 1555 1556 1557 1558 1559 1560 1561 1562 1563
1500 1504 1508 1512 1515 1518 1521 1524 1526 1528 1530 1532 1534 1535 1537 1538 1540 1541 1542 1543 1544 1545 1546 1547 1548 1549 1550 1551 1551 1552 1553 1554 1554 1555 1556 1557 1558 1559 1560 1561 1562 1563 1564
1501 1505 1509 1513 1516 1519 1522 1525 1527 1529 1531 1532 1534 1536 1537 1538 1540 1541 1542 1543 1545 1545 1546 1547 1548 1549 1550 1551 1551 1552 1553 1553 1554 1555 1556 1557 1558 1559 1560 1561 1562 1563 1564
1502 1506 1510 1513 1517 1520 1523 1525 1527 1529 1531 1533 1534 1536 1537 1539 1540 1541 1542 1543 1544 1545 1546 1546 1547 1548 1549 1550 1550 1551 1552 1552 1553 1554 1555 1556 1557 1558 1559 1560 1562 1563 1564
1503 1506 1510 1514 1517 1520 1523 1526 1528 1529 1531 1532 1534 1535 1537 1538 1539 1540 1541 1542 1542 1543 1544 1545 1545 1546 1547 1548 1549 1550 1550 1551 1552 1552 1553 1554 1556 1557 1558 1559 1560 1562 1563
1502 1506 1510 1513 1517 1520 1523 1525 1527 1529 1530 1532 1533 1534 1535 1536 1537 1538 1539 1540 1541 1541 1542 1543 1543 1544 1545 1545 1546 1547 1548 1548 1549 1550 1551 1552 1553 1555 1556 1557 1558 1560 1561
1502 1506 1509 1513 1516 1519 1522 1524 1526 1528 1529 1530 1531 1532 1533 1534 1535 1536 1537 1538 1539 1539 1540 1540 1541 1541 1542 1542 1543 1544 1544 1545 1546 1547 1548 1549 1550 1552 1553 1554 1555 1557 1558
1500 1505 1508 1512 1515 1518 1521 1522 1524 1525 1526 1527 1529 1530 1531 1532 1533 1534 1535 1536 1536 1537 1537 1538 1538 1539 1539 1539 1540 1540 1541 1542 1542 1543 1544 1545 1547 1548 1549 1551 1552 1554 1555
1501 1504 1507 1511 1514 1517 1519 1520 1521 1522 1524 1524 1525 1527 1528 1529 1530 1531 1532 1533 1533 1534 1534 1534 1535 1535 1535 1536 1536 1537 1537 1538 1538 1539 1540 1542 1543 1544 1545 1546 1548 1549 1551
1501 1504 1507 1510 1512 1514 1516 1517 1518 1519 1520 1521 1522 1523 1524 1525 1526 1527 1528 1529 1530 1531 1531 1531 1531 1531 1532 1532 1532 1533 1533 1534 1534 1535 1536 1537 1538 1539 1540 1542 1543 1545 1547
1501 1503 1506 1509 1511 1512 1513 1513 1514 1514 1514 1515 1516 1518 1520 1521 1522 1523 1524 1525 1526 1527 1527 1527 1528 1528 1528 1528 1528 1529 1529 1530 1530 1531 1531 1533 1534 1535 1536 1537 1538 1540 1541
1500 1502 1505 1507 1508 1510 1510 1510 1510 1509 1508 1509 1511 1512 1514 1516 1518 1519 1520 1521 1522 1522 1523 1522 1523 1523 1523 1524 1524 1525 1525 1525 1526 1526 1527 1528 1529 1530 1531 1532 1533 1535 1536
1501 1502 1504 1507 1507 1508 1507 1507 1506 1504 1503 1503 1504 1506 1509 1511 1513 1514 1515 1516 1517 1518 1518 1518 1518 1518 1519 1519 1520 1520 1520 1521 1521 1521 1522 1523 1524 1525 1526 1527 1528 1530 1531
1501 1502 1503 1504 1504 1504 1504 1503 1502 1500 1499 1499 1499 1500 1502 1505 1507 1510 1511 1512 1514 1514 1514 1514 1514 1515 1515 1515 1515 1516 1516 1516 1516 1517 1517 1518 1518 1519 1520 1521 1523 1524 1525
1500 1501 1502 1502 1501 1501 1501 1499 1498 1496 1495 1494 1495 1494 1495 1498 1502 1506 1508 1509 1510 1510 1510 1510 1511 1511 1511 1511 1511 1511 1511 1511 1512 1512 1512 1513 1513 1514 1515 1516 1517 1518 1520
1499 1500 1500 1500 1499 1498 1497 1496 1494 1492 1491 1490 1490 1490 1491 1494 1499 1503 1505 1506 1506 1507 1507 1507 1507 1508 1507 1507 1507 1507 1507 1507 1507 1507 1508 1508 1508 1509 1510 1510 1511 1512 1514
1498 1499 1498 1499 1498 1496 1494 1493 1491 1489 1488 1488 1488 1488 1490 1494 1497 1500 1501 1502 1503 1504 1504 1504 1504 1504 1504 1504 1504 1504 1503 1502 1502 1503 1503 1504 1505 1505 1505 1506 1506 1507 1508
1498 1499 1498 1497 1497 1495 1493 1492 1490 1488 1488 1488 1488 1489 1491 1493 1496 1497 1498 1499 1500 1501 1501 1501 1501 1502 1501 1501 1501 1500 1500 1500 1499 1500 1501 1501 1501 1502 1502 1502 1502 1502 1503
1499 1498 1497 1496 1495 1494 1493 1491 1490 1489 1489 1488 1488 1489 1490 1491 1492 1493 1495 1496 1497 1498 1498 1498 1498 1499 1499 1498 1498 1498 1498 1497 1497 1498 1498 1498 1498 1499 1498 1498 1498 1498 1498
1500 1499 1497 1496 1495 1494 1493 1491 1490 1489 1488 1487 1486 1486 1487 1488 1488 1489 1490 1491 1492 1493 1494 1494 1495 1495 1495 1495 1495 1495 1495 1495 1495 1495 1495 1495 1495 1495 1494 1493 1493 1493 1493
1501 1499 1497 1496 1495 1493 1492 1491 1489 1487 1486 1485 1484 1484 1483 1484 1484 1484 1485 1486 1487 1488 1489 1489 1490 1491 1491 1492 1492 1491 1491 1492 1492 1492 1491 1491 1491 1491 1490 1489 1488 1488 1488
1501 1499 1497 1496 1494 1492 1491 1489 1487 1486 1484 1482 1481 1480 1480 1479 1479 1479 1479 1479 1480 1481 1482 1483 1484 1485 1486 1487 1487 1487 1488 1488 1488 1488 1488 1486 1486 1486 1486 1485 1485 1484 1483